Total_Precipitation_Accumulation
2.58 2.65 2.48 2.49 2.60 2.64 2.80 3.04 3.09 2.87 2.76 2.58 2.16 1.91 1.96 2.15 2.41 2.15 2.05 1.93 1.75 1.64 1.55 1.51 1.52 1.57 1.64 1.76 1.96 2.13 2.24 2.30 2.37 2.35 2.40 2.54 2.63 2.75
2.40 2.46 2.42 2.39 2.53 2.50 2.55 2.76 2.96 3.01 2.82 2.57 2.32 2.01 2.04 1.95 2.17 2.11 2.09 2.01 1.78 1.59 1.43 1.34 1.33 1.38 1.47 1.53 1.60 1.72 1.76 1.78 1.84 1.90 1.94 1.96 1.99 2.10
2.06 2.12 2.15 2.29 2.44 2.42 2.48 2.54 2.78 3.07 2.97 2.77 2.56 2.38 2.26 2.17 2.01 1.96 1.89 1.79 1.61 1.48 1.28 1.18 1.19 1.23 1.27 1.34 1.42 1.52 1.59 1.64 1.66 1.68 1.74 1.80 1.84 1.88
2.03 2.18 2.08 2.23 2.39 2.34 2.45 2.46 2.63 2.95 3.07 3.19 3.17 2.87 2.58 2.38 2.29 2.11 1.76 1.61 1.62 1.55 1.38 1.23 1.15 1.14 1.13 1.15 1.23 1.36 1.47 1.54 1.56 1.58 1.59 1.63 1.72 1.81
2.12 2.15 2.03 2.15 2.22 2.23 2.30 2.36 2.53 2.75 2.99 2.97 3.03 2.92 2.77 2.49 2.57 2.30 2.00 1.93 1.58 1.52 1.44 1.27 1.19 1.15 1.12 1.14 1.18 1.22 1.29 1.39 1.42 1.51 1.60 1.62 1.65 1.69
2.07 1.98 1.85 1.85 1.94 2.09 2.09 2.22 2.43 2.63 2.80 2.76 2.81 2.90 2.96 2.95 2.95 2.72 2.53 2.29 1.94 1.56 1.57 1.40 1.33 1.22 1.11 1.06 1.07 1.13 1.23 1.33 1.37 1.42 1.52 1.59 1.64 1.69
1.91 1.74 1.54 1.56 1.65 1.72 1.67 1.99 2.29 2.43 2.51 2.58 2.66 2.84 2.97 3.18 3.01 2.88 2.77 2.69 2.39 2.01 1.95 1.61 1.48 1.28 1.12 1.08 1.08 1.07 1.10 1.23 1.32 1.40 1.48 1.54 1.63 1.72
1.79 1.75 1.59 1.45 1.38 1.41 1.38 1.54 1.85 2.01 2.20 2.46 2.60 2.80 2.89 2.93 3.11 3.10 3.05 2.88 2.61 2.30 2.29 2.22 2.06 1.89 1.58 1.28 1.20 1.08 1.01 1.10 1.26 1.36 1.47 1.56 1.62 1.69
1.70 1.71 1.47 1.33 1.37 1.25 1.32 1.39 1.43 1.52 1.67 2.04 2.32 2.42 2.47 2.55 2.85 2.97 2.96 2.84 2.77 2.61 2.64 2.63 2.48 2.23 1.81 1.58 1.48 1.23 1.12 1.07 1.14 1.24 1.30 1.41 1.52 1.61
1.42 1.42 1.43 1.42 1.34 1.38 1.37 1.37 1.29 1.30 1.37 1.41 1.57 1.78 2.07 2.30 2.49 2.72 2.98 2.93 2.88 2.80 2.77 2.84 2.66 2.52 2.15 1.85 1.69 1.43 1.30 1.24 1.23 1.25 1.27 1.29 1.34 1.45
1.45 1.45 1.51 1.56 1.55 1.40 1.34 1.38 1.40 1.43 1.40 1.42 1.36 1.43 1.57 1.70 1.86 2.14 2.48 2.81 3.03 3.01 2.82 2.89 2.83 2.86 2.80 2.40 1.95 1.70 1.41 1.30 1.26 1.25 1.24 1.22 1.23 1.32
1.73 1.72 1.60 1.48 1.45 1.32 1.30 1.40 1.38 1.39 1.35 1.32 1.28 1.25 1.24 1.37 1.52 1.70 1.97 2.35 2.64 2.80 2.72 2.85 3.01 3.34 3.50 3.00 2.39 1.95 1.70 1.58 1.43 1.30 1.27 1.26 1.28 1.19
1.67 1.62 1.48 1.31 1.17 1.13 1.11 1.21 1.30 1.25 1.25 1.31 1.35 1.35 1.36 1.40 1.45 1.53 1.80 2.02 2.16 2.12 2.10 2.49 2.74 3.02 3.36 3.27 3.01 2.63 2.30 2.03 1.79 1.59 1.52 1.51 1.49 1.37
1.74 1.67 1.51 1.32 1.17 1.10 0.97 1.02 1.09 1.04 1.10 1.27 1.34 1.37 1.38 1.39 1.45 1.57 1.74 1.94 2.11 2.09 2.08 2.28 2.50 2.71 2.81 2.79 2.80 2.83 2.77 2.58 2.32 2.07 1.84 1.88 1.82 1.82
1.58 1.72 1.60 1.32 1.12 1.04 1.02 0.94 0.85 0.85 1.00 1.11 1.17 1.25 1.29 1.36 1.47 1.63 1.85 2.01 2.07 2.04 1.97 2.10 2.33 2.56 2.66 2.57 2.46 2.43 2.48 2.46 2.40 2.36 2.31 2.18 2.03 1.95
1.43 1.44 1.39 1.25 1.08 1.10 1.13 1.00 0.88 0.94 1.00 1.00 1.07 1.18 1.24 1.31 1.44 1.54 1.71 1.92 2.04 1.95 1.93 2.01 2.19 2.40 2.43 2.38 2.31 2.20 2.22 2.30 2.36 2.45 2.49 2.41 2.28 2.18
1.37 1.38 1.35 1.35 1.23 1.19 1.24 1.23 1.19 1.22 1.17 1.11 1.12 1.15 1.19 1.25 1.31 1.44 1.59 1.69 1.79 1.78 1.77 1.84 1.96 2.13 2.14 2.13 2.13 2.00 1.98 1.97 2.11 2.39 2.59 2.57 2.34 2.21
1.27 1.36 1.48 1.47 1.43 1.41 1.40 1.39 1.38 1.34 1.33 1.36 1.33 1.27 1.25 1.27 1.25 1.31 1.44 1.51 1.52 1.56 1.64 1.65 1.75 1.92 1.99 1.90 1.69 1.64 1.65 1.67 1.71 1.93 2.18 2.37 2.27 2.12
1.21 1.34 1.50 1.54 1.55 1.56 1.50 1.46 1.49 1.43 1.42 1.44 1.40 1.37 1.39 1.40 1.37 1.36 1.45 1.55 1.52 1.47 1.49 1.62 1.67 1.75 1.77 1.68 1.47 1.26 1.43 1.57 1.62 1.63 1.69 1.81 1.88 1.78
1.27 1.45 1.63 1.63 1.64 1.62 1.55 1.48 1.49 1.45 1.42 1.42 1.42 1.39 1.40 1.46 1.48 1.44 1.44 1.50 1.51 1.46 1.46 1.47 1.53 1.54 1.57 1.58 1.50 1.32 1.16 1.35 1.48 1.48 1.45 1.48 1.46 1.50
1.43 1.54 1.57 1.58 1.60 1.55 1.47 1.43 1.46 1.44 1.41 1.44 1.43 1.43 1.43 1.51 1.51 1.48 1.43 1.47 1.42 1.35 1.34 1.36 1.38 1.42 1.50 1.62 1.55 1.35 1.20 1.15 1.26 1.33 1.38 1.49 1.46 1.41
1.39 1.40 1.39 1.38 1.41 1.42 1.42 1.45 1.51 1.49 1.48 1.47 1.41 1.39 1.40 1.44 1.45 1.45 1.43 1.41 1.38 1.33 1.28 1.29 1.32 1.38 1.47 1.56 1.52 1.41 1.33 1.30 1.30 1.33 1.33 1.36 1.36 1.31
1.32 1.33 1.32 1.28 1.25 1.30 1.35 1.37 1.41 1.43 1.39 1.35 1.33 1.33 1.31 1.35 1.34 1.31 1.31 1.27 1.27 1.28 1.31 1.32 1.34 1.37 1.40 1.48 1.55 1.53 1.41 1.40 1.42 1.38 1.21 1.12 1.05 0.96